Regional Weather Roundup
Issued by NWS

Home | Current Version | Previous Version | Text Only | Print | Product List | Glossary Off
Versions: 1 2 3 4 5 6 7 8 9 10 11 12 13 14 15 16 17 18 19 20 21 22 23 24 25 26 27 28 29 30 31 32 33 34 35 36 37 38 39 40 41 42 43 44 45 46 47 48 49 50

000
ASUS43 KDTX 280810
RWRMI
MICHIGAN HOURLY REGIONAL WEATHER ROUNDUP
NATIONAL WEATHER SERVICE DETROIT/PONTIAC MI
300 AM EST WED JAN 28 2015

NOTE: "FAIR" INDICATES FEW OR NO CLOUDS BELOW 12,000 FEET WITH NO
SIGNIFICANT WEATHER AND/OR OBSTRUCTION TO VISIBILITY.

MIZ047>049-052>055-059>063-066>070-074>076-081>083-280900-
SOUTHEAST LOWER MICHIGAN

CITY           SKY/WX    TMP DP  RH WIND       PRES   REMARKS
ADRIAN         PTCLDY     8   5  87 NW3       30.26R
ALMA           PTCLDY     5   3  90 W3        30.26R
ANN ARBOR      CLEAR      6   3  87 W3        30.24S
BAD AXE        PTCLDY     4   1  90 CALM      30.23R
DETROIT CITY   CLEAR     16   8  71 W3        30.25R
DETROIT        CLEAR     13   8  81 CALM      30.26S
FLINT          PTCLDY     7   2  80 CALM      30.24S
GROSSE ILE     CLEAR     12   9  85 W5        30.24S
HILLSDALE      PTCLDY     5   2  86 CALM      30.22R
HOWELL         CLEAR      8   5  90 CALM      30.22F

CITY           SKY/WX    TMP DP  RH WIND       PRES   REMARKS
JACKSON        PTCLDY     7   3  84 W3        30.24R
LAMBERTVILLE   PTCLDY    10   7  85 CALM      30.26S
LANSING        CLEAR      9   5  84 W3        30.25R
LAPEER         NOT AVBL
MASON          PTCLDY     9   5  86 CALM      30.24R
MONROE         CLEAR     10   9  92 CALM      30.24S
MT. CLEMENS    CLEAR     14   8  79 NW2       30.22R
PONTIAC        PTCLDY    10   6  84 W5        30.21S
PORT HOPE        N/A     12   6  77 SW3       30.21R
PORT HURON     CLEAR      3   0  85 CALM      30.23S
TRI CITIES     PTCLDY    12   7  80 CALM      30.25S
YPSILANTI      CLEAR     14   6  70 N5        30.25S
$$
MIZ043>046-050>051-056>058-064>065-071>073-077>080-280900-
SOUTHWEST LOWER MICHIGAN

CITY           SKY/WX    TMP DP  RH WIND       PRES   REMARKS
BATTLE CREEK   PTCLDY    12   5  73 CALM      30.25R
BENTON HARBOR  PTCLDY    14  11  87 E3        30.28R
BIG RAPIDS     MOCLDY     6   3  88 CALM      30.25R
COLDWATER      PTCLDY     8   5  89 CALM      30.25R
HOLLAND        CLEAR     15  11  83 CALM      30.28R
GRAND RAPIDS   MOCLDY    12   7  80 CALM      30.26R
KALAMAZOO        N/A     11   6  81 CALM      30.27R
MARSHALL       PTCLDY     7   4  89 CALM      30.24R
MUSKEGON       PTCLDY    15  10  80 CALM      30.29R
$$
MIZ016>042-280900-
NORTHERN LOWER MICHIGAN

CITY           SKY/WX    TMP DP  RH WIND       PRES   REMARKS
ALPENA         PTCLDY    -4  -8  83 CALM      30.25R
BEAVER ISLAND  PTCLDY     2  -1  85 CALM      30.26S
BELLAIRE       PTCLDY     2  -2  85 CALM      30.29R
CADILLAC       PTCLDY     1  -3  82 CALM      30.22R
CHARLEVOIX     PTCLDY     4   1  88 E3        30.30R
FRANKFORT      MOSUNNY   10   8  89 CALM      30.27S
GAYLORD        PTCLDY    -5 -10  79 CALM      30.21R
GRAYLING       PTCLDY    -5 -10  81 CALM      30.23R
HARBOR SPRINGS MOCLDY     2  -3  79 CALM      30.26R
HOUGHTON LAKE  PTCLDY     1  -4  79 CALM      30.23R
MANISTEE       MOCLDY    10   5  79 CALM      30.28R
OSCODA         PTCLDY     4  -2  77 CALM      30.23S
PELLSTON       MOCLDY    -5 -10  79 CALM      30.27R
TRAVERSE CITY  PTCLDY     6   2  83 CALM      30.27R
$$
MIZ007>008-015-280900-
EASTERN UPPER MICHIGAN

CITY           SKY/WX    TMP DP  RH WIND       PRES   REMARKS
KINROSS        MOCLDY     3  -2  78 W7        30.25R
MACKINAC ISLAN MOCLDY     7   0  73 W8        30.25R
NEWBERRY       MOCLDY     2  -3  81 SW5       30.23S
S. S. MARIE    MOCLDY     0  -5  79 CALM      30.25R
$$
MIZ004>006-011>014-085-280900-
CENTRAL UPPER MICHIGAN

CITY           SKY/WX    TMP DP  RH WIND       PRES   REMARKS
MANISTIQUE     CLOUDY     6   3  89 CALM      30.24S
ESCANABA       CLOUDY    21  16  79 SW5       30.24S
MENOMINEE      CLOUDY    19  14  79 SW3       30.24F
SAWYER-GWINN   CLOUDY    20  17  86 S6        30.17S
$$
MIZ001>003-009>011-084-280900-
WESTERN UPPER MICHIGAN

CITY           SKY/WX    TMP DP  RH WIND       PRES   REMARKS
IRON MOUNTAIN  CLOUDY    22  17  81 S6        30.17F
HOUGHTON       CLOUDY    24  18  77 S3        30.13F
COPPER HARBOR    N/A     27  19  72 W6        30.16S
IRONWOOD       CLOUDY    25  19  80 S6        30.10R
$$

ABBREVIATIONS USED IN REMARKS
   TC - TEMPERATURE IN CELSIUS
  WCI - WIND CHILL INDEX
   HX - HEAT INDEX
  VSB - VISIBILITY




USA.gov is the U.S. government's official web portal to all federal, state and local government web resources and services.